Location: LDNL
(36.4545°S, 141.6685°E)
Time: 11:09:31
(UTC+10:00)

Vanguard 3 - Pass Details

Date: 01 February 2022
Orbit: 508 x 3258 km, 33.3° (Epoch: 25 May)

Event Time Altitude Azimuth Distance (km) Brightness Sun altitude
Rises 22:43:40 0° 318° (NW) 2,993 10.1 -21.2°
Reaches altitude 10° 22:45:48 10° 328° (NNW) 2,277 9.3 -21.5°
Enters shadow 22:48:03 24° 350° (N) 1,721 8.5 -21.9°
Maximum altitude 22:50:34 34° 33° (NNE) 1,608 - -22.2°
Drops below altitude 10° 22:58:11 10° 93° (E) 3,684 - -23.3°
Sets 23:02:36 0° 100° (E) 5,177 - -23.9°
